Change the Weather History Date:

Wednesday, November 28, 2012

  Actual Average Record
Temperature  
Mean Temperature 24 °F -  
Max Temperature 41 °F 30 °F 62 °F (1998)
Min Temperature 8 °F 13 °F -17 °F (1952)
Degree Days  
Heating Degree Days 40    
Moisture  
Dew Point 20 °F    
Average Humidity 78    
Maximum Humidity 100    
Minimum Humidity 53    
Precipitation  
Precipitation 0.00 in - - ()
Sea Level Pressure  
Sea Level Pressure 30.19 in    
Wind  
Wind Speed 5 mph (South)    
Max Wind Speed 14 mph    
Max Gust Speed 17 mph    
Visibility 9 miles    
Events      
Averages and records for this station are not official NWS values.
T = Trace of Precipitation, MM = Missing Value Source: NWS Daily Summary

Daily Weather History Graph

Daily Weather History Graph

Search for Another Location

Airport or City:

Trip Planner

Search our weather history database for the weather conditions in past years. The results will help you decide how hot, cold, wet, or windy it might be!

Date:

Astronomy

Nov. 28, 2012 Rise Set
Actual Time 7:32 AM CST 4:44 PM CST
Civil Twilight 6:59 AM CST 5:17 PM CST
Nautical Twilight 6:24 AM CST 5:52 PM CST
Astronomical Twilight 5:49 AM CST 6:27 PM CST
Moon 5:00 PM CST (11/28) 7:30 AM CST (11/28)
Length of Visible Light 10h 17m
Length of Day
9h 12m
Full, 100% of the Moon is Illuminated
Nov 28
Full
Dec 6
Last Quarter
Dec 13
New
Dec 19
First Quarter
Dec 28
Full

Hourly Weather History & Observations

Time (CST) Temp. Windchill Dew Point Humidity Pressure Visibility Wind Dir Wind Speed Gust Speed Precip Events Conditions
12:12 AM 21.2 °F 14.9 °F 17.6 °F 86% 30.26 in 10.0 mi WNW 4.6 mph - N/A   Clear
12:33 AM 19.4 °F 10.4 °F 17.6 °F 93% 30.26 in 10.0 mi NW 6.9 mph - N/A   Clear
12:52 AM 17.6 °F 7.3 °F 15.8 °F 93% 30.27 in 10.0 mi NW 8.1 mph - N/A   Clear
1:12 AM 17.6 °F 8.2 °F 15.8 °F 93% 30.27 in 10.0 mi NW 6.9 mph - N/A   Clear
1:33 AM 17.6 °F 8.2 °F 15.8 °F 93% 30.26 in 10.0 mi NNW 6.9 mph - N/A   Clear
1:52 AM 17.6 °F 9.3 °F 15.8 °F 93% 30.26 in 10.0 mi NW 5.8 mph - N/A   Clear
2:13 AM 15.8 °F 7.2 °F 15.8 °F 100% 30.27 in 10.0 mi NNW 5.8 mph - N/A   Clear
2:52 AM 19.4 °F 14.3 °F 17.6 °F 93% 30.28 in 7.0 mi North 3.5 mph - N/A   Clear
3:13 AM 17.6 °F - 15.8 °F 93% 30.28 in 5.0 mi Calm Calm - N/A   Clear
3:32 AM 15.8 °F - 12.2 °F 86% 30.28 in 5.0 mi Calm Calm - N/A   Clear
3:52 AM 14.0 °F - 12.2 °F 93% 30.28 in 10.0 mi Calm Calm - N/A   Clear
4:13 AM 14.0 °F - 12.2 °F 93% 30.29 in 7.0 mi Calm Calm - N/A   Clear
4:32 AM 12.2 °F 6.1 °F 10.4 °F 92% 30.30 in 7.0 mi WSW 3.5 mph - N/A   Clear
4:52 AM 10.4 °F - 8.6 °F 92% 30.30 in 10.0 mi Calm Calm - N/A   Clear
5:13 AM 12.2 °F - 10.4 °F 92% 30.30 in 7.0 mi Calm Calm - N/A   Clear
5:32 AM 12.2 °F - 10.4 °F 92% 30.31 in 5.0 mi Calm Calm - N/A   Clear
5:52 AM 12.2 °F - 10.4 °F 92% 30.30 in 7.0 mi Calm Calm - N/A   Clear
6:13 AM 10.4 °F - 8.6 °F 92% 30.30 in 10.0 mi Calm Calm - N/A   Clear
6:32 AM 10.4 °F - 8.6 °F 92% 30.31 in 10.0 mi Calm Calm - N/A   Clear
6:52 AM 8.6 °F - 6.8 °F 92% 30.31 in 7.0 mi Calm Calm - N/A   Clear
7:13 AM 8.6 °F - 6.8 °F 92% 30.31 in 7.0 mi Calm Calm - N/A   Clear
7:32 AM 10.4 °F - 8.6 °F 92% 30.31 in 10.0 mi Calm Calm - N/A   Scattered Clouds
7:52 AM 12.2 °F - 12.2 °F 100% 30.31 in 7.0 mi Calm Calm - N/A   Overcast
8:13 AM 15.8 °F - 12.2 °F 86% 30.31 in 7.0 mi Calm Calm - N/A   Overcast
8:32 AM 17.6 °F 12.3 °F 15.8 °F 93% 30.31 in 7.0 mi South 3.5 mph - N/A   Overcast
8:52 AM 19.4 °F 12.8 °F 17.6 °F 93% 30.31 in 5.0 mi South 4.6 mph - N/A   Overcast
9:13 AM 19.4 °F - 19.4 °F 100% 30.31 in 4.0 mi Calm Calm - N/A   Overcast
9:32 AM 21.2 °F 14.9 °F 21.2 °F 100% 30.31 in 4.0 mi South 4.6 mph - N/A   Overcast
9:52 AM 23.0 °F 15.8 °F 21.2 °F 93% 30.31 in 3.0 mi SSE 5.8 mph - N/A   Overcast
10:13 AM 24.8 °F 17.9 °F 24.8 °F 100% 30.30 in 7.0 mi SSE 5.8 mph - N/A   Mostly Cloudy
10:32 AM 26.6 °F 17.5 °F 24.8 °F 93% 30.30 in 10.0 mi South 9.2 mph - N/A   Scattered Clouds
10:52 AM 28.4 °F 21.2 °F 24.8 °F 86% 30.30 in 10.0 mi South 6.9 mph - N/A   Clear
11:13 AM 30.2 °F 21.9 °F 24.8 °F 80% 30.29 in 10.0 mi South 9.2 mph - N/A   Clear
11:32 AM 33.8 °F 25.8 °F 24.8 °F 70% 30.27 in 10.0 mi South 10.4 mph - N/A   Clear
11:52 AM 35.6 °F 26.6 °F 26.6 °F 70% 30.26 in 10.0 mi South 13.8 mph 17.3 mph N/A   Clear
12:13 PM 35.6 °F 28.0 °F 26.6 °F 70% 30.25 in 10.0 mi South 10.4 mph - N/A   Clear
12:32 PM 35.6 °F 27.5 °F 26.6 °F 70% 30.24 in 10.0 mi South 11.5 mph - N/A   Clear
12:52 PM 37.4 °F 29.8 °F 26.6 °F 65% 30.22 in 10.0 mi SSW 11.5 mph - N/A   Clear
1:13 PM 39.2 °F 33.6 °F 26.6 °F 61% 30.21 in 10.0 mi South 8.1 mph - N/A   Clear
1:32 PM 39.2 °F 33.0 °F 26.6 °F 61% 30.19 in 10.0 mi SSE 9.2 mph - N/A   Clear
1:52 PM 41.0 °F 34.7 °F 24.8 °F 53% 30.17 in 10.0 mi South 10.4 mph - N/A   Clear
2:13 PM 41.0 °F 33.9 °F 24.8 °F 53% 30.17 in 10.0 mi South 12.7 mph 17.3 mph N/A   Clear
2:32 PM 39.2 °F 32.0 °F 24.8 °F 56% 30.15 in 10.0 mi South 11.5 mph - N/A   Clear
2:53 PM 39.2 °F 32.5 °F 24.8 °F 56% 30.14 in 10.0 mi South 10.4 mph - N/A   Clear
3:13 PM 41.0 °F 35.2 °F 24.8 °F 53% 30.12 in 10.0 mi South 9.2 mph - N/A   Clear
3:32 PM 39.2 °F 32.5 °F 24.8 °F 56% 30.12 in 10.0 mi South 10.4 mph - N/A   Clear
3:53 PM 39.2 °F 33.0 °F 24.8 °F 56% 30.12 in 10.0 mi South 9.2 mph - N/A   Clear
4:13 PM 39.2 °F 33.0 °F 24.8 °F 56% 30.11 in 10.0 mi South 9.2 mph - N/A   Clear
4:32 PM 39.2 °F 33.0 °F 24.8 °F 56% 30.10 in 10.0 mi South 9.2 mph - N/A   Clear
4:52 PM 37.4 °F 31.4 °F 24.8 °F 60% 30.09 in 10.0 mi South 8.1 mph - N/A   Clear
5:13 PM 35.6 °F 29.9 °F 24.8 °F 65% 30.08 in 10.0 mi South 6.9 mph - N/A   Clear
5:32 PM 35.6 °F 29.2 °F 24.8 °F 65% 30.07 in 10.0 mi South 8.1 mph - N/A   Clear
5:52 PM 35.6 °F 29.2 °F 24.8 °F 65% 30.06 in 10.0 mi South 8.1 mph - N/A   Clear
6:13 PM 35.6 °F 28.6 °F 24.8 °F 65% 30.06 in 10.0 mi South 9.2 mph - N/A   Clear
6:32 PM 33.8 °F 26.4 °F 24.8 °F 70% 30.06 in 10.0 mi South 9.2 mph - N/A   Clear
6:52 PM 35.6 °F 28.6 °F 24.8 °F 65% 30.05 in 10.0 mi South 9.2 mph - N/A   Clear
7:12 PM 33.8 °F 28.6 °F 24.8 °F 70% 30.06 in 10.0 mi South 5.8 mph - N/A   Clear
7:53 PM 33.8 °F 27.7 °F 24.8 °F 70% 30.06 in 10.0 mi South 6.9 mph - N/A   Clear
8:12 PM 33.8 °F 27.7 °F 23.0 °F 65% 30.05 in 10.0 mi South 6.9 mph - N/A   Clear
8:32 PM 33.8 °F - 23.0 °F 65% 30.06 in 10.0 mi Calm Calm - N/A   Clear
8:53 PM 32.0 °F - 23.0 °F 69% 30.06 in 10.0 mi Calm Calm - N/A   Clear
9:12 PM 33.8 °F 28.6 °F 23.0 °F 65% 30.05 in 10.0 mi South 5.8 mph - N/A   Clear
9:32 PM 32.0 °F 24.8 °F 23.0 °F 69% 30.04 in 10.0 mi South 8.1 mph - N/A   Clear
9:52 PM 30.2 °F 24.3 °F 21.2 °F 69% 30.03 in 10.0 mi SSE 5.8 mph - N/A   Clear
10:12 PM 30.2 °F 24.3 °F 21.2 °F 69% 30.04 in 10.0 mi South 5.8 mph - N/A   Clear
10:33 PM 30.2 °F 22.6 °F 21.2 °F 69% 30.03 in 10.0 mi South 8.1 mph - N/A   Clear
10:52 PM 30.2 °F 24.3 °F 21.2 °F 69% 30.02 in 10.0 mi South 5.8 mph - N/A   Clear
11:12 PM 26.6 °F - 19.4 °F 74% 30.03 in 10.0 mi Calm Calm - N/A   Clear
11:33 PM 28.4 °F - 21.2 °F 74% 30.03 in 10.0 mi Calm Calm - N/A   Clear
11:52 PM 28.4 °F - 21.2 °F 74% 30.03 in 10.0 mi Calm Calm - N/A   Clear